Location: Newark
(34.1333°N, 7.9667°W)
Time: 14:51:42
(UTC+00:00)

S-56A Canister/Altair - Pass Details

Date: 06 December 2021
Orbit: 634 x 2499 km, 38.9° (Epoch: 25 January)

Event Time Altitude Azimuth Distance (km) Brightness Sun altitude
Exits shadow 04:26:26 25° 109° (ESE) 1,411 9.3 -35.9°
Drops below altitude 10° 04:28:16 10° 110° (ESE) 2,100 10.5 -35.6°
Sets 04:30:22 0° 111° (ESE) 2,946 11.5 -35.1°
